Time,TemperatureF,DewpointF,PressureIn,WindDirection,WindDirectionDegrees,WindSpeedMPH,WindSpeedGustMPH,Humidity,HourlyPrecipIn,Conditions,Clouds,dailyrainin,SoftwareType,DateUTC
2013-05-25 00:00:00,57.7,47.3,30.18,SE,135,0.0,0.0,60,0.00,,,0.00,dv,2013-05-25 04:00:00,
2013-05-25 00:05:00,57.3,46.2,30.18,WNW,285,4.8,4.8,58,0.00,,,0.00,dv,2013-05-25 04:05:00,
2013-05-25 00:10:00,57.1,45.0,30.19,SW,215,1.6,1.6,55,0.00,,,0.00,dv,2013-05-25 04:10:00,
2013-05-25 00:15:00,57.1,45.0,30.20,SSW,204,1.6,1.6,55,0.00,,,0.00,dv,2013-05-25 04:15:00,
2013-05-25 00:20:00,57.2,44.8,30.20,South,186,1.6,1.6,54,0.00,,,0.00,dv,2013-05-25 04:20:00,
2013-05-25 00:25:00,57.3,44.9,30.19,East,95,1.6,1.6,54,0.00,,,0.00,dv,2013-05-25 04:25:00,
2013-05-25 00:30:00,57.4,45.7,30.20,East,94,0.0,0.0,56,0.00,,,0.00,dv,2013-05-25 04:30:00,
2013-05-25 00:35:00,57.5,45.4,30.20,East,95,0.0,0.0,55,0.00,,,0.00,dv,2013-05-25 04:35:00,
2013-05-25 00:40:00,57.5,44.3,30.20,ESE,113,1.6,1.6,52,0.00,,,0.00,dv,2013-05-25 04:40:00,
2013-05-25 00:45:00,57.6,45.1,30.20,SSW,205,1.6,1.6,54,0.00,,,0.00,dv,2013-05-25 04:45:00,
2013-05-25 00:50:00,57.5,44.7,30.20,West,278,1.6,1.6,53,0.00,,,0.00,dv,2013-05-25 04:50:00,
2013-05-25 00:55:00,57.5,44.7,30.20,West,278,1.6,1.6,53,0.00,,,0.00,dv,2013-05-25 04:55:00,
2013-05-25 01:00:00,57.5,44.7,30.20,West,278,0.0,0.0,53,0.00,,,0.00,dv,2013-05-25 05:00:00,
2013-05-25 01:05:00,57.4,45.7,30.20,SW,219,1.6,1.6,56,0.00,,,0.00,dv,2013-05-25 05:05:00,
2013-05-25 01:10:00,57.3,44.9,30.21,SW,233,3.2,3.2,54,0.00,,,0.00,dv,2013-05-25 05:10:00,
2013-05-25 01:15:00,57.1,44.7,30.20,SW,234,0.0,0.0,54,0.00,,,0.00,dv,2013-05-25 05:15:00,
2013-05-25 01:20:00,56.9,45.2,30.20,SW,233,0.0,0.0,56,0.00,,,0.00,dv,2013-05-25 05:20:00,
2013-05-25 01:25:00,56.7,44.7,30.20,SW,234,0.0,0.0,55,0.00,,,0.00,dv,2013-05-25 05:25:00,
2013-05-25 01:30:00,56.6,44.6,30.20,SW,234,0.0,0.0,55,0.00,,,0.00,dv,2013-05-25 05:30:00,
2013-05-25 01:35:00,56.4,44.7,30.20,SW,234,0.0,0.0,56,0.00,,,0.00,dv,2013-05-25 05:35:00,
2013-05-25 01:40:00,56.3,44.6,30.20,SW,234,0.0,0.0,56,0.00,,,0.00,dv,2013-05-25 05:40:00,
2013-05-25 01:45:00,56.2,44.9,30.20,SW,233,0.0,0.0,57,0.00,,,0.00,dv,2013-05-25 05:45:00,
2013-05-25 01:50:00,56.0,45.0,30.21,SW,234,0.0,0.0,58,0.00,,,0.00,dv,2013-05-25 05:50:00,
2013-05-25 01:55:00,55.7,44.8,30.21,SW,234,0.0,0.0,58,0.00,,,0.00,dv,2013-05-25 05:55:00,
2013-05-25 02:00:00,55.5,44.2,30.21,SW,233,0.0,0.0,57,0.00,,,0.00,dv,2013-05-25 06:00:00,
2013-05-25 02:05:00,55.3,44.4,30.21,SW,234,0.0,0.0,58,0.00,,,0.00,dv,2013-05-25 06:05:00,
2013-05-25 02:10:00,55.2,45.3,30.21,SW,234,0.0,0.0,61,0.00,,,0.00,dv,2013-05-25 06:10:00,
2013-05-25 02:15:00,54.9,45.0,30.21,SW,234,0.0,0.0,61,0.00,,,0.00,dv,2013-05-25 06:15:00,
2013-05-25 02:20:00,54.6,44.4,30.21,SW,233,0.0,0.0,60,0.00,,,0.00,dv,2013-05-25 06:20:00,
2013-05-25 02:25:00,54.4,44.8,30.20,SW,234,0.0,0.0,62,0.00,,,0.00,dv,2013-05-25 06:25:00,
2013-05-25 02:30:00,54.2,45.0,30.20,West,279,1.6,1.6,63,0.00,,,0.00,dv,2013-05-25 06:30:00,
2013-05-25 02:35:00,54.1,44.6,30.21,West,279,0.0,0.0,62,0.00,,,0.00,dv,2013-05-25 06:35:00,
2013-05-25 02:40:00,54.0,45.1,30.21,West,279,0.0,0.0,64,0.00,,,0.00,dv,2013-05-25 06:40:00,
2013-05-25 02:45:00,53.9,44.4,30.20,West,279,0.0,0.0,62,0.00,,,0.00,dv,2013-05-25 06:45:00,
2013-05-25 02:50:00,53.8,44.3,30.20,West,279,0.0,0.0,62,0.00,,,0.00,dv,2013-05-25 06:50:00,
2013-05-25 02:55:00,53.8,44.9,30.20,NNW,329,0.0,0.0,64,0.00,,,0.00,dv,2013-05-25 06:55:00,
2013-05-25 03:00:00,53.6,44.4,30.20,NNW,329,1.6,1.6,63,0.00,,,0.00,dv,2013-05-25 07:00:00,
2013-05-25 03:05:00,53.6,45.0,30.20,NNW,329,0.0,0.0,65,0.00,,,0.00,dv,2013-05-25 07:05:00,
2013-05-25 03:10:00,53.4,44.2,30.21,NNW,329,0.0,0.0,63,0.00,,,0.00,dv,2013-05-25 07:10:00,
2013-05-25 03:15:00,53.2,44.3,30.20,NNW,329,1.6,1.6,64,0.00,,,0.00,dv,2013-05-25 07:15:00,
2013-05-25 03:20:00,53.0,43.8,30.20,NNW,329,0.0,0.0,63,0.00,,,0.00,dv,2013-05-25 07:20:00,
2013-05-25 03:25:00,52.9,44.3,30.20,NNW,329,0.0,0.0,65,0.00,,,0.00,dv,2013-05-25 07:25:00,
2013-05-25 03:30:00,52.8,44.2,30.20,NNW,329,0.0,0.0,65,0.00,,,0.00,dv,2013-05-25 07:30:00,
2013-05-25 03:35:00,52.8,44.0,30.20,NNW,329,0.0,0.0,64,0.00,,,0.00,dv,2013-05-25 07:35:00,
2013-05-25 03:40:00,52.7,44.2,30.20,NNW,329,0.0,0.0,65,0.00,,,0.00,dv,2013-05-25 07:40:00,
2013-05-25 03:45:00,52.5,44.3,30.20,NNW,329,0.0,0.0,66,0.00,,,0.00,dv,2013-05-25 07:45:00,
2013-05-25 03:50:00,52.4,44.2,30.19,NNW,329,0.0,0.0,66,0.00,,,0.00,dv,2013-05-25 07:50:00,
2013-05-25 03:55:00,52.2,43.7,30.19,NNW,329,0.0,0.0,65,0.00,,,0.00,dv,2013-05-25 07:55:00,
2013-05-25 04:00:00,51.9,44.0,30.20,NNW,329,0.0,0.0,67,0.00,,,0.00,dv,2013-05-25 08:00:00,
2013-05-25 04:05:00,51.6,43.7,30.20,West,278,3.2,3.2,67,0.00,,,0.00,dv,2013-05-25 08:05:00,
2013-05-25 04:10:00,51.5,43.6,30.19,West,278,0.0,0.0,67,0.00,,,0.00,dv,2013-05-25 08:10:00,
2013-05-25 04:15:00,51.3,43.4,30.20,West,278,0.0,0.0,67,0.00,,,0.00,dv,2013-05-25 08:15:00,
2013-05-25 04:20:00,51.2,43.3,30.21,NNE,31,0.0,0.0,67,0.00,,,0.00,dv,2013-05-25 08:20:00,
2013-05-25 04:25:00,51.2,43.3,30.21,NNE,31,0.0,0.0,67,0.00,,,0.00,dv,2013-05-25 08:25:00,
2013-05-25 04:30:00,51.2,43.6,30.21,NNE,31,0.0,0.0,68,0.00,,,0.00,dv,2013-05-25 08:30:00,
2013-05-25 04:35:00,51.2,43.9,30.21,NNE,31,0.0,0.0,69,0.00,,,0.00,dv,2013-05-25 08:35:00,
2013-05-25 04:40:00,51.2,43.6,30.21,NNE,31,0.0,0.0,68,0.00,,,0.00,dv,2013-05-25 08:40:00,
2013-05-25 04:45:00,51.1,43.5,30.21,NNE,31,0.0,0.0,68,0.00,,,0.00,dv,2013-05-25 08:45:00,
2013-05-25 04:50:00,51.1,43.5,30.21,NNE,31,0.0,0.0,68,0.00,,,0.00,dv,2013-05-25 08:50:00,
2013-05-25 04:55:00,51.1,43.2,30.21,NNE,31,0.0,0.0,67,0.00,,,0.00,dv,2013-05-25 08:55:00,
2013-05-25 05:00:00,51.0,43.1,30.21,NNE,31,0.0,0.0,67,0.00,,,0.00,dv,2013-05-25 09:00:00,
2013-05-25 05:05:00,51.0,43.1,30.21,NNE,31,0.0,0.0,67,0.00,,,0.00,dv,2013-05-25 09:05:00,
2013-05-25 05:10:00,51.0,42.6,30.21,NNE,31,0.0,0.0,65,0.00,,,0.00,dv,2013-05-25 09:10:00,
2013-05-25 05:15:00,51.0,43.1,30.22,NNE,31,0.0,0.0,67,0.00,,,0.00,dv,2013-05-25 09:15:00,
2013-05-25 05:20:00,51.0,42.8,30.21,NNE,31,0.0,0.0,66,0.00,,,0.00,dv,2013-05-25 09:20:00,
2013-05-25 05:25:00,51.0,43.1,30.22,NNE,31,0.0,0.0,67,0.00,,,0.00,dv,2013-05-25 09:25:00,
2013-05-25 05:30:00,50.9,43.0,30.22,NNE,31,0.0,0.0,67,0.00,,,0.00,dv,2013-05-25 09:30:00,
2013-05-25 05:35:00,50.9,42.7,30.22,NNE,31,0.0,0.0,66,0.00,,,0.00,dv,2013-05-25 09:35:00,
2013-05-25 05:40:00,50.7,42.6,30.22,NNE,31,0.0,0.0,66,0.00,,,0.00,dv,2013-05-25 09:40:00,
2013-05-25 05:45:00,50.7,42.8,30.22,NNE,31,0.0,0.0,67,0.00,,,0.00,dv,2013-05-25 09:45:00,
2013-05-25 05:50:00,50.7,43.1,30.22,NNE,31,0.0,0.0,68,0.00,,,0.00,dv,2013-05-25 09:50:00,
2013-05-25 05:55:00,50.5,43.2,30.22,NNE,31,0.0,0.0,69,0.00,,,0.00,dv,2013-05-25 09:55:00,
2013-05-25 06:00:00,50.3,43.3,30.22,NNE,31,0.0,0.0,70,0.00,,,0.00,dv,2013-05-25 10:00:00,
2013-05-25 06:05:00,50.1,43.1,30.22,NNE,31,0.0,0.0,70,0.00,,,0.00,dv,2013-05-25 10:05:00,
2013-05-25 06:10:00,49.8,42.8,30.23,NNE,31,0.0,0.0,70,0.00,,,0.00,dv,2013-05-25 10:10:00,
2013-05-25 06:15:00,49.7,43.0,30.22,NNE,31,0.0,0.0,71,0.00,,,0.00,dv,2013-05-25 10:15:00,
2013-05-25 06:20:00,49.4,42.7,30.22,NNE,31,0.0,0.0,71,0.00,,,0.00,dv,2013-05-25 10:20:00,
2013-05-25 06:25:00,49.2,42.8,30.22,NNE,31,0.0,0.0,72,0.00,,,0.00,dv,2013-05-25 10:25:00,
2013-05-25 06:30:00,49.0,42.9,30.22,NNE,31,0.0,0.0,73,0.00,,,0.00,dv,2013-05-25 10:30:00,
2013-05-25 06:35:00,49.0,42.9,30.22,NNE,31,0.0,0.0,73,0.00,,,0.00,dv,2013-05-25 10:35:00,
2013-05-25 06:40:00,48.7,42.8,30.23,NNE,31,0.0,0.0,74,0.00,,,0.00,dv,2013-05-25 10:40:00,
2013-05-25 06:45:00,48.4,42.3,30.24,NNE,31,0.0,0.0,73,0.00,,,0.00,dv,2013-05-25 10:45:00,
2013-05-25 06:50:00,48.3,42.5,30.23,NNE,31,0.0,0.0,74,0.00,,,0.00,dv,2013-05-25 10:50:00,
2013-05-25 06:55:00,48.1,42.5,30.24,NNE,31,0.0,0.0,75,0.00,,,0.00,dv,2013-05-25 10:55:00,
2013-05-25 07:00:00,47.9,42.3,30.24,NNE,31,0.0,0.0,75,0.00,,,0.00,dv,2013-05-25 11:00:00,
2013-05-25 07:05:00,47.9,42.6,30.25,NNE,31,0.0,0.0,76,0.00,,,0.00,dv,2013-05-25 11:05:00,
2013-05-25 07:10:00,47.9,42.8,30.25,NNE,31,0.0,0.0,77,0.00,,,0.00,dv,2013-05-25 11:10:00,
2013-05-25 07:15:00,47.9,43.1,30.24,NNE,31,0.0,0.0,78,0.00,,,0.00,dv,2013-05-25 11:15:00,
2013-05-25 07:20:00,47.9,43.1,30.25,NNE,31,0.0,0.0,78,0.00,,,0.00,dv,2013-05-25 11:20:00,
2013-05-25 07:25:00,47.9,43.3,30.25,NNE,31,0.0,0.0,79,0.00,,,0.00,dv,2013-05-25 11:25:00,
2013-05-25 07:30:00,48.0,43.4,30.25,NNE,31,0.0,0.0,79,0.00,,,0.00,dv,2013-05-25 11:30:00,
2013-05-25 07:35:00,48.1,43.5,30.25,NNE,31,0.0,0.0,79,0.00,,,0.00,dv,2013-05-25 11:35:00,
2013-05-25 07:40:00,48.2,43.8,30.26,NNE,31,0.0,0.0,80,0.00,,,0.00,dv,2013-05-25 11:40:00,
2013-05-25 07:45:00,48.4,44.0,30.26,NNE,31,0.0,0.0,80,0.00,,,0.00,dv,2013-05-25 11:45:00,
2013-05-25 07:50:00,48.6,44.2,30.26,NNE,31,0.0,0.0,80,0.00,,,0.00,dv,2013-05-25 11:50:00,
2013-05-25 07:55:00,48.7,44.3,30.26,NNE,31,0.0,0.0,80,0.00,,,0.00,dv,2013-05-25 11:55:00,
2013-05-25 08:00:00,48.9,44.5,30.26,NNE,31,0.0,0.0,80,0.00,,,0.00,dv,2013-05-25 12:00:00,
2013-05-25 08:05:00,49.1,44.7,30.26,NNE,31,0.0,0.0,80,0.00,,,0.00,dv,2013-05-25 12:05:00,
2013-05-25 08:10:00,49.5,45.1,30.26,NNE,31,0.0,0.0,80,0.00,,,0.00,dv,2013-05-25 12:10:00,
2013-05-25 08:15:00,49.8,45.4,30.27,NNE,31,0.0,0.0,80,0.00,,,0.00,dv,2013-05-25 12:15:00,
2013-05-25 08:20:00,50.1,45.7,30.27,NNE,31,0.0,0.0,80,0.00,,,0.00,dv,2013-05-25 12:20:00,
2013-05-25 08:25:00,50.4,45.7,30.26,NNE,31,0.0,0.0,79,0.00,,,0.00,dv,2013-05-25 12:25:00,
2013-05-25 08:30:00,50.7,45.8,30.27,NNE,31,0.0,0.0,78,0.00,,,0.00,dv,2013-05-25 12:30:00,
2013-05-25 08:35:00,51.0,45.8,30.27,NNE,31,0.0,0.0,77,0.00,,,0.00,dv,2013-05-25 12:35:00,
2013-05-25 08:40:00,51.3,46.1,30.27,NNE,31,0.0,0.0,77,0.00,,,0.00,dv,2013-05-25 12:40:00,
2013-05-25 08:45:00,51.7,46.2,30.28,NNE,31,0.0,0.0,76,0.00,,,0.00,dv,2013-05-25 12:45:00,
2013-05-25 08:50:00,52.1,46.6,30.28,NNE,31,0.0,0.0,76,0.00,,,0.00,dv,2013-05-25 12:50:00,
2013-05-25 08:55:00,52.5,47.0,30.27,NNE,31,0.0,0.0,76,0.00,,,0.00,dv,2013-05-25 12:55:00,
2013-05-25 09:00:00,52.9,47.1,30.28,NNE,31,0.0,0.0,75,0.00,,,0.00,dv,2013-05-25 13:00:00,
2013-05-25 09:05:00,53.3,47.5,30.29,NNE,31,0.0,0.0,75,0.00,,,0.00,dv,2013-05-25 13:05:00,
2013-05-25 09:10:00,53.6,47.5,30.29,NNE,31,0.0,0.0,74,0.00,,,0.00,dv,2013-05-25 13:10:00,
2013-05-25 09:15:00,54.0,47.4,30.29,NNE,31,0.0,0.0,72,0.00,,,0.00,dv,2013-05-25 13:15:00,
2013-05-25 09:20:00,54.5,47.9,30.28,NNE,31,0.0,0.0,72,0.00,,,0.00,dv,2013-05-25 13:20:00,
2013-05-25 09:25:00,54.9,48.2,30.29,NNE,31,0.0,0.0,72,0.00,,,0.00,dv,2013-05-25 13:25:00,
2013-05-25 09:30:00,55.3,48.3,30.29,NNE,31,0.0,0.0,71,0.00,,,0.00,dv,2013-05-25 13:30:00,
2013-05-25 09:35:00,55.7,47.6,30.29,NNE,31,0.0,0.0,67,0.00,,,0.00,dv,2013-05-25 13:35:00,
2013-05-25 09:40:00,56.1,48.0,30.29,NNE,31,0.0,0.0,67,0.00,,,0.00,dv,2013-05-25 13:40:00,
2013-05-25 09:45:00,56.9,47.8,30.30,NNE,31,0.0,0.0,64,0.00,,,0.00,dv,2013-05-25 13:45:00,
2013-05-25 09:50:00,57.7,47.3,30.29,NNE,31,0.0,0.0,60,0.00,,,0.00,dv,2013-05-25 13:50:00,
2013-05-25 09:55:00,58.4,47.9,30.30,NNE,31,0.0,0.0,60,0.00,,,0.00,dv,2013-05-25 13:55:00,
2013-05-25 10:00:00,58.9,48.4,30.30,NNE,31,0.0,0.0,60,0.00,,,0.00,dv,2013-05-25 14:00:00,
2013-05-25 10:05:00,59.4,48.5,30.30,NNE,31,0.0,0.0,59,0.00,,,0.00,dv,2013-05-25 14:05:00,
2013-05-25 10:10:00,60.0,49.4,30.30,NNE,31,0.0,0.0,60,0.00,,,0.00,dv,2013-05-25 14:10:00,
2013-05-25 10:15:00,60.7,50.7,30.30,NNE,31,0.0,0.0,62,0.00,,,0.00,dv,2013-05-25 14:15:00,
2013-05-25 10:20:00,61.4,51.1,30.30,NNE,33,1.6,1.6,61,0.00,,,0.00,dv,2013-05-25 14:20:00,
2013-05-25 10:25:00,62.0,50.2,30.30,NNE,33,0.0,0.0,57,0.00,,,0.00,dv,2013-05-25 14:25:00,
2013-05-25 10:30:00,62.5,48.9,30.30,NNE,33,0.0,0.0,52,0.00,,,0.00,dv,2013-05-25 14:30:00,
2013-05-25 10:35:00,63.0,48.1,30.30,NNE,33,0.0,0.0,49,0.00,,,0.00,dv,2013-05-25 14:35:00,
2013-05-25 10:40:00,63.7,48.0,30.30,NNE,33,0.0,0.0,47,0.00,,,0.00,dv,2013-05-25 14:40:00,
2013-05-25 10:45:00,64.2,48.8,30.29,NNE,33,3.2,3.2,48,0.00,,,0.00,dv,2013-05-25 14:45:00,
2013-05-25 10:50:00,64.6,49.2,30.29,NNE,33,1.6,1.6,48,0.00,,,0.00,dv,2013-05-25 14:50:00,
2013-05-25 10:55:00,64.9,49.0,30.29,NNE,33,1.6,1.6,47,0.00,,,0.00,dv,2013-05-25 14:55:00,
2013-05-25 11:00:00,65.1,49.2,30.28,SSE,165,1.6,1.6,47,0.00,,,0.00,dv,2013-05-25 15:00:00,
2013-05-25 11:05:00,65.3,50.2,30.29,ESE,115,1.6,1.6,49,0.00,,,0.00,dv,2013-05-25 15:05:00,
2013-05-25 11:10:00,65.5,49.6,30.29,NW,323,1.6,1.6,47,0.00,,,0.00,dv,2013-05-25 15:10:00,
2013-05-25 11:15:00,65.7,49.3,30.29,WNW,300,3.2,3.2,46,0.00,,,0.00,dv,2013-05-25 15:15:00,
2013-05-25 11:20:00,66.0,48.2,30.29,SSW,213,3.2,3.2,43,0.00,,,0.00,dv,2013-05-25 15:20:00,
2013-05-25 11:25:00,66.2,49.3,30.29,SSW,213,1.6,1.6,45,0.00,,,0.00,dv,2013-05-25 15:25:00,
2013-05-25 11:30:00,66.6,50.6,30.29,SSW,213,1.6,1.6,47,0.00,,,0.00,dv,2013-05-25 15:30:00,
2013-05-25 11:35:00,66.8,51.2,30.30,SSW,213,1.6,1.6,48,0.00,,,0.00,dv,2013-05-25 15:35:00,
2013-05-25 11:40:00,66.9,51.7,30.29,SSW,213,0.0,0.0,49,0.00,,,0.00,dv,2013-05-25 15:40:00,
2013-05-25 11:45:00,67.0,51.8,30.28,SSW,213,1.6,1.6,49,0.00,,,0.00,dv,2013-05-25 15:45:00,
2013-05-25 11:50:00,67.4,51.3,30.28,WNW,302,6.4,6.4,47,0.00,,,0.00,dv,2013-05-25 15:50:00,
2013-05-25 11:55:00,67.7,51.5,30.29,WNW,289,1.6,1.6,47,0.00,,,0.00,dv,2013-05-25 15:55:00,
2013-05-25 12:00:00,68.1,50.6,30.29,NW,319,3.2,3.2,44,0.00,,,0.00,dv,2013-05-25 16:00:00,
2013-05-25 12:05:00,68.2,50.7,30.29,NW,320,1.6,1.6,44,0.00,,,0.00,dv,2013-05-25 16:05:00,
2013-05-25 12:10:00,68.3,49.3,30.29,NW,324,1.6,1.6,41,0.00,,,0.00,dv,2013-05-25 16:10:00,
2013-05-25 12:15:00,68.5,50.5,30.29,NNW,347,4.8,4.8,43,0.00,,,0.00,dv,2013-05-25 16:15:00,
2013-05-25 12:20:00,68.8,49.3,30.29,North,2,1.6,1.6,40,0.00,,,0.00,dv,2013-05-25 16:20:00,
2013-05-25 12:25:00,69.0,50.4,30.28,NW,307,3.2,3.2,42,0.00,,,0.00,dv,2013-05-25 16:25:00,
2013-05-25 12:30:00,69.1,50.0,30.28,NW,326,3.2,3.2,41,0.00,,,0.00,dv,2013-05-25 16:30:00,
2013-05-25 12:35:00,69.4,49.8,30.28,West,280,4.8,4.8,40,0.00,,,0.00,dv,2013-05-25 16:35:00,
2013-05-25 12:40:00,69.6,50.5,30.28,West,274,4.8,4.8,41,0.00,,,0.00,dv,2013-05-25 16:40:00,
2013-05-25 12:45:00,70.0,50.3,30.29,NW,312,4.8,4.8,40,0.00,,,0.00,dv,2013-05-25 16:45:00,
2013-05-25 12:50:00,70.2,50.5,30.28,SSW,205,1.6,1.6,40,0.00,,,0.00,dv,2013-05-25 16:50:00,
2013-05-25 12:55:00,70.3,52.1,30.28,SSW,205,1.6,1.6,43,0.00,,,0.00,dv,2013-05-25 16:55:00,
2013-05-25 13:00:00,70.5,50.8,30.28,SSW,206,1.6,1.6,40,0.00,,,0.00,dv,2013-05-25 17:00:00,
2013-05-25 13:05:00,70.6,50.9,30.27,South,185,3.2,3.2,40,0.00,,,0.00,dv,2013-05-25 17:05:00,
2013-05-25 13:10:00,70.8,51.5,30.26,SSW,198,1.6,1.6,41,0.00,,,0.00,dv,2013-05-25 17:10:00,
2013-05-25 13:15:00,71.0,51.2,30.27,WNW,297,1.6,1.6,40,0.00,,,0.00,dv,2013-05-25 17:15:00,
2013-05-25 13:20:00,71.2,51.9,30.27,NE,46,3.2,3.2,41,0.00,,,0.00,dv,2013-05-25 17:20:00,
2013-05-25 13:25:00,71.3,51.5,30.26,NW,314,4.8,4.8,40,0.00,,,0.00,dv,2013-05-25 17:25:00,
2013-05-25 13:30:00,71.4,52.1,30.25,NNE,31,3.2,3.2,41,0.00,,,0.00,dv,2013-05-25 17:30:00,
2013-05-25 13:35:00,71.5,52.6,30.25,NE,43,1.6,1.6,42,0.00,,,0.00,dv,2013-05-25 17:35:00,
2013-05-25 13:40:00,71.6,52.2,30.25,NE,44,1.6,1.6,41,0.00,,,0.00,dv,2013-05-25 17:40:00,
2013-05-25 13:45:00,72.0,53.6,30.24,NNW,327,3.2,3.2,43,0.00,,,0.00,dv,2013-05-25 17:45:00,
2013-05-25 13:50:00,72.6,53.1,30.24,East,79,6.4,6.4,41,0.00,,,0.00,dv,2013-05-25 17:50:00,
2013-05-25 13:55:00,73.0,52.4,30.24,WSW,251,1.6,1.6,39,0.00,,,0.00,dv,2013-05-25 17:55:00,
2013-05-25 14:00:00,73.5,52.3,30.23,South,190,4.8,4.8,38,0.00,,,0.00,dv,2013-05-25 18:00:00,
2013-05-25 14:05:00,73.8,52.1,30.23,West,263,3.2,3.2,37,0.00,,,0.00,dv,2013-05-25 18:05:00,
2013-05-25 14:10:00,74.1,52.9,30.22,NNW,330,4.8,4.8,38,0.00,,,0.00,dv,2013-05-25 18:10:00,
2013-05-25 14:15:00,74.4,52.0,30.22,NE,43,4.8,4.8,36,0.00,,,0.00,dv,2013-05-25 18:15:00,
2013-05-25 14:20:00,74.6,54.4,30.22,NE,45,1.6,1.6,40,0.00,,,0.00,dv,2013-05-25 18:20:00,
2013-05-25 14:25:00,74.8,53.5,30.22,SSE,167,3.2,3.2,38,0.00,,,0.00,dv,2013-05-25 18:25:00,
2013-05-25 14:30:00,74.9,54.1,30.23,SW,233,3.2,3.2,39,0.00,,,0.00,dv,2013-05-25 18:30:00,
2013-05-25 14:35:00,75.1,54.3,30.22,NW,306,6.4,6.4,39,0.00,,,0.00,dv,2013-05-25 18:35:00,
2013-05-25 14:40:00,75.4,53.5,30.22,SE,141,3.2,3.2,37,0.00,,,0.00,dv,2013-05-25 18:40:00,
2013-05-25 14:45:00,75.6,54.2,30.22,WSW,256,1.6,1.6,38,0.00,,,0.00,dv,2013-05-25 18:45:00,
2013-05-25 14:50:00,75.8,53.8,30.22,West,261,1.6,1.6,37,0.00,,,0.00,dv,2013-05-25 18:50:00,
2013-05-25 14:55:00,76.0,55.1,30.22,West,265,1.6,1.6,39,0.00,,,0.00,dv,2013-05-25 18:55:00,
2013-05-25 15:00:00,76.0,54.0,30.22,ENE,60,3.2,3.2,37,0.00,,,0.00,dv,2013-05-25 19:00:00,
2013-05-25 15:05:00,76.1,53.5,30.22,ENE,60,1.6,1.6,36,0.00,,,0.00,dv,2013-05-25 19:05:00,
2013-05-25 15:10:00,76.3,55.9,30.21,SW,221,4.8,4.8,40,0.00,,,0.00,dv,2013-05-25 19:10:00,
2013-05-25 15:15:00,76.5,53.3,30.21,SE,131,4.8,4.8,35,0.00,,,0.00,dv,2013-05-25 19:15:00,
2013-05-25 15:20:00,76.5,52.7,30.21,SSW,204,4.8,4.8,34,0.00,,,0.00,dv,2013-05-25 19:20:00,
2013-05-25 15:25:00,76.7,52.2,30.20,WSW,250,1.6,1.6,33,0.00,,,0.00,dv,2013-05-25 19:25:00,
2013-05-25 15:30:00,77.0,51.9,30.20,East,96,4.8,4.8,32,0.00,,,0.00,dv,2013-05-25 19:30:00,
2013-05-25 15:35:00,77.2,52.7,30.20,ESE,115,1.6,1.6,33,0.00,,,0.00,dv,2013-05-25 19:35:00,
2013-05-25 15:40:00,77.3,52.7,30.20,SSW,205,6.4,6.4,33,0.00,,,0.00,dv,2013-05-25 19:40:00,
2013-05-25 15:45:00,77.5,52.9,30.20,East,92,3.2,3.2,33,0.00,,,0.00,dv,2013-05-25 19:45:00,
2013-05-25 15:50:00,77.4,52.8,30.20,ESE,117,6.4,6.4,33,0.00,,,0.00,dv,2013-05-25 19:50:00,
2013-05-25 15:55:00,77.4,52.8,30.20,SE,128,1.6,1.6,33,0.00,,,0.00,dv,2013-05-25 19:55:00,
2013-05-25 16:00:00,77.5,52.3,30.20,WSW,238,1.6,1.6,32,0.00,,,0.00,dv,2013-05-25 20:00:00,
2013-05-25 16:05:00,77.6,53.0,30.19,East,90,6.4,6.4,33,0.00,,,0.00,dv,2013-05-25 20:05:00,
2013-05-25 16:10:00,77.6,53.0,30.19,WNW,289,4.8,4.8,33,0.00,,,0.00,dv,2013-05-25 20:10:00,
2013-05-25 16:15:00,77.5,53.5,30.19,NW,324,6.4,6.4,34,0.00,,,0.00,dv,2013-05-25 20:15:00,
2013-05-25 16:20:00,77.5,52.3,30.19,North,0,4.8,4.8,32,0.00,,,0.00,dv,2013-05-25 20:20:00,
2013-05-25 16:25:00,77.6,53.0,30.19,NW,308,3.2,3.2,33,0.00,,,0.00,dv,2013-05-25 20:25:00,
2013-05-25 16:30:00,77.7,52.5,30.18,NW,322,4.8,4.8,32,0.00,,,0.00,dv,2013-05-25 20:30:00,
2013-05-25 16:35:00,77.7,53.1,30.18,NNE,28,4.8,4.8,33,0.00,,,0.00,dv,2013-05-25 20:35:00,
2013-05-25 16:40:00,77.7,53.7,30.18,WNW,288,3.2,3.2,34,0.00,,,0.00,dv,2013-05-25 20:40:00,
2013-05-25 16:45:00,77.7,53.1,30.18,East,98,6.4,6.4,33,0.00,,,0.00,dv,2013-05-25 20:45:00,
2013-05-25 16:50:00,77.7,53.1,30.18,NNW,340,4.8,4.8,33,0.00,,,0.00,dv,2013-05-25 20:50:00,
2013-05-25 16:55:00,77.6,53.0,30.18,South,173,4.8,4.8,33,0.00,,,0.00,dv,2013-05-25 20:55:00,
2013-05-25 17:00:00,77.6,53.6,30.18,NNW,333,4.8,4.8,34,0.00,,,0.00,dv,2013-05-25 21:00:00,
2013-05-25 17:05:00,77.7,53.1,30.18,WSW,240,4.8,4.8,33,0.00,,,0.00,dv,2013-05-25 21:05:00,
2013-05-25 17:10:00,77.7,53.7,30.18,SE,125,4.8,4.8,34,0.00,,,0.00,dv,2013-05-25 21:10:00,
2013-05-25 17:15:00,77.7,53.1,30.18,ENE,67,4.8,4.8,33,0.00,,,0.00,dv,2013-05-25 21:15:00,
2013-05-25 17:20:00,77.6,53.0,30.18,ENE,73,4.8,4.8,33,0.00,,,0.00,dv,2013-05-25 21:20:00,
2013-05-25 17:25:00,77.6,54.2,30.17,ENE,67,4.8,4.8,35,0.00,,,0.00,dv,2013-05-25 21:25:00,
2013-05-25 17:30:00,77.5,54.1,30.18,NE,39,6.4,6.4,35,0.00,,,0.00,dv,2013-05-25 21:30:00,
2013-05-25 17:35:00,77.4,53.4,30.17,West,274,4.8,4.8,34,0.00,,,0.00,dv,2013-05-25 21:35:00,
2013-05-25 17:40:00,77.3,53.9,30.17,NNW,330,9.7,9.7,35,0.00,,,0.00,dv,2013-05-25 21:40:00,
2013-05-25 17:45:00,77.4,54.0,30.17,North,0,4.8,4.8,35,0.00,,,0.00,dv,2013-05-25 21:45:00,
2013-05-25 17:50:00,77.4,55.2,30.17,NW,309,4.8,4.8,37,0.00,,,0.00,dv,2013-05-25 21:50:00,
2013-05-25 17:55:00,77.3,53.9,30.16,North,0,11.3,11.3,35,0.00,,,0.00,dv,2013-05-25 21:55:00,
2013-05-25 18:00:00,77.3,52.7,30.17,WNW,300,4.8,4.8,33,0.00,,,0.00,dv,2013-05-25 22:00:00,
2013-05-25 18:05:00,77.2,53.9,30.17,WNW,296,3.2,3.2,35,0.00,,,0.00,dv,2013-05-25 22:05:00,
2013-05-25 18:10:00,77.1,52.6,30.17,NW,311,6.4,6.4,33,0.00,,,0.00,dv,2013-05-25 22:10:00,
2013-05-25 18:15:00,77.0,53.1,30.17,NW,319,6.4,6.4,34,0.00,,,0.00,dv,2013-05-25 22:15:00,
2013-05-25 18:20:00,76.8,52.3,30.17,SSE,167,3.2,3.2,33,0.00,,,0.00,dv,2013-05-25 22:20:00,
2013-05-25 18:25:00,76.7,52.8,30.17,SE,141,1.6,1.6,34,0.00,,,0.00,dv,2013-05-25 22:25:00,
2013-05-25 18:30:00,76.5,53.8,30.17,SSW,206,3.2,3.2,36,0.00,,,0.00,dv,2013-05-25 22:30:00,
2013-05-25 18:35:00,76.3,53.1,30.17,NNW,328,6.4,6.4,35,0.00,,,0.00,dv,2013-05-25 22:35:00,
2013-05-25 18:40:00,76.2,53.0,30.16,North,357,4.8,4.8,35,0.00,,,0.00,dv,2013-05-25 22:40:00,
2013-05-25 18:45:00,75.9,53.9,30.16,NW,314,4.8,4.8,37,0.00,,,0.00,dv,2013-05-25 22:45:00,
2013-05-25 18:50:00,75.7,52.6,30.16,West,261,4.8,4.8,35,0.00,,,0.00,dv,2013-05-25 22:50:00,
2013-05-25 18:55:00,75.6,52.5,30.17,NNE,15,4.8,4.8,35,0.00,,,0.00,dv,2013-05-25 22:55:00,
2013-05-25 19:00:00,75.3,52.2,30.16,NNW,335,4.8,4.8,35,0.00,,,0.00,dv,2013-05-25 23:00:00,
2013-05-25 19:05:00,75.1,53.2,30.16,NNW,341,4.8,4.8,37,0.00,,,0.00,dv,2013-05-25 23:05:00,
2013-05-25 19:10:00,74.9,52.5,30.17,West,274,4.8,4.8,36,0.00,,,0.00,dv,2013-05-25 23:10:00,
2013-05-25 19:15:00,74.7,52.3,30.17,WSW,250,4.8,4.8,36,0.00,,,0.00,dv,2013-05-25 23:15:00,
2013-05-25 19:20:00,74.5,53.2,30.17,West,265,1.6,1.6,38,0.00,,,0.00,dv,2013-05-25 23:20:00,
2013-05-25 19:25:00,74.2,52.4,30.17,NW,326,4.8,4.8,37,0.00,,,0.00,dv,2013-05-25 23:25:00,
2013-05-25 19:30:00,73.9,51.6,30.17,WNW,298,3.2,3.2,36,0.00,,,0.00,dv,2013-05-25 23:30:00,
2013-05-25 19:35:00,73.6,51.3,30.17,NNW,335,3.2,3.2,36,0.00,,,0.00,dv,2013-05-25 23:35:00,
2013-05-25 19:40:00,73.5,51.8,30.17,NW,311,1.6,1.6,37,0.00,,,0.00,dv,2013-05-25 23:40:00,
2013-05-25 19:45:00,73.1,51.5,30.17,NNW,335,3.2,3.2,37,0.00,,,0.00,dv,2013-05-25 23:45:00,
2013-05-25 19:50:00,72.8,51.7,30.17,NNW,336,4.8,4.8,38,0.00,,,0.00,dv,2013-05-25 23:50:00,
2013-05-25 19:55:00,72.5,52.5,30.17,NNW,330,1.6,1.6,40,0.00,,,0.00,dv,2013-05-25 23:55:00,
2013-05-25 20:00:00,72.3,51.8,30.17,NNW,330,1.6,1.6,39,0.00,,,0.00,dv,2013-05-26 00:00:00,
2013-05-25 20:05:00,72.1,52.2,30.17,North,0,1.6,1.6,40,0.00,,,0.00,dv,2013-05-26 00:05:00,
2013-05-25 20:10:00,71.8,51.9,30.17,NW,322,1.6,1.6,40,0.00,,,0.00,dv,2013-05-26 00:10:00,
2013-05-25 20:15:00,71.5,52.6,30.17,NW,322,1.6,1.6,42,0.00,,,0.00,dv,2013-05-26 00:15:00,
2013-05-25 20:20:00,71.3,51.5,30.17,NW,322,1.6,1.6,40,0.00,,,0.00,dv,2013-05-26 00:20:00,
2013-05-25 20:30:00,70.7,52.4,30.18,NNW,331,3.2,3.2,43,0.00,,,0.00,dv,2013-05-26 00:30:00,
2013-05-25 20:35:00,70.4,51.7,30.17,West,268,8.1,8.1,42,0.00,,,0.00,dv,2013-05-26 00:35:00,
2013-05-25 20:40:00,70.1,51.9,30.18,West,275,3.2,3.2,43,0.00,,,0.00,dv,2013-05-26 00:40:00,
2013-05-25 20:45:00,69.7,51.5,30.18,WSW,246,1.6,1.6,43,0.00,,,0.00,dv,2013-05-26 00:45:00,
2013-05-25 20:50:00,69.4,51.7,30.18,NNW,334,3.2,3.2,44,0.00,,,0.00,dv,2013-05-26 00:50:00,
2013-05-25 20:55:00,69.0,50.9,30.18,NW,323,3.2,3.2,43,0.00,,,0.00,dv,2013-05-26 00:55:00,
2013-05-25 21:00:00,68.7,52.0,30.17,West,278,3.2,3.2,46,0.00,,,0.00,dv,2013-05-26 01:00:00,
2013-05-25 21:05:00,68.5,51.8,30.17,NW,309,1.6,1.6,46,0.00,,,0.00,dv,2013-05-26 01:05:00,
2013-05-25 21:10:00,68.2,51.1,30.17,NW,313,1.6,1.6,45,0.00,,,0.00,dv,2013-05-26 01:10:00,
2013-05-25 21:15:00,67.9,51.3,30.17,NW,313,1.6,1.6,46,0.00,,,0.00,dv,2013-05-26 01:15:00,
2013-05-25 21:20:00,67.7,52.0,30.17,NW,313,0.0,0.0,48,0.00,,,0.00,dv,2013-05-26 01:20:00,
2013-05-25 21:25:00,67.4,51.7,30.17,NW,313,0.0,0.0,48,0.00,,,0.00,dv,2013-05-26 01:25:00,
2013-05-25 21:30:00,67.0,51.8,30.18,NW,313,0.0,0.0,49,0.00,,,0.00,dv,2013-05-26 01:30:00,
2013-05-25 21:35:00,66.8,51.6,30.18,NW,313,0.0,0.0,49,0.00,,,0.00,dv,2013-05-26 01:35:00,
2013-05-25 21:40:00,66.6,52.2,30.18,NW,313,0.0,0.0,51,0.00,,,0.00,dv,2013-05-26 01:40:00,
2013-05-25 21:45:00,66.3,51.9,30.18,NW,313,0.0,0.0,51,0.00,,,0.00,dv,2013-05-26 01:45:00,
2013-05-25 21:50:00,66.0,51.7,30.18,NW,313,0.0,0.0,51,0.00,,,0.00,dv,2013-05-26 01:50:00,
2013-05-25 21:55:00,65.6,51.3,30.18,NW,313,0.0,0.0,51,0.00,,,0.00,dv,2013-05-26 01:55:00,
2013-05-25 22:00:00,65.2,51.3,30.18,NW,313,0.0,0.0,52,0.00,,,0.00,dv,2013-05-26 02:00:00,
2013-05-25 22:05:00,64.8,50.6,30.18,NW,313,0.0,0.0,51,0.00,,,0.00,dv,2013-05-26 02:05:00,
2013-05-25 22:10:00,64.5,50.7,30.18,NW,313,0.0,0.0,52,0.00,,,0.00,dv,2013-05-26 02:10:00,
2013-05-25 22:15:00,64.3,50.5,30.18,NW,313,0.0,0.0,52,0.00,,,0.00,dv,2013-05-26 02:15:00,
2013-05-25 22:20:00,64.0,50.6,30.18,NW,313,0.0,0.0,53,0.00,,,0.00,dv,2013-05-26 02:20:00,
2013-05-25 22:25:00,63.8,50.8,30.18,NW,313,0.0,0.0,54,0.00,,,0.00,dv,2013-05-26 02:25:00,
2013-05-25 22:30:00,63.6,51.4,30.17,NW,313,0.0,0.0,56,0.00,,,0.00,dv,2013-05-26 02:30:00,
2013-05-25 22:35:00,63.5,51.3,30.17,NW,313,0.0,0.0,56,0.00,,,0.00,dv,2013-05-26 02:35:00,
2013-05-25 22:40:00,63.3,50.7,30.17,NW,313,0.0,0.0,55,0.00,,,0.00,dv,2013-05-26 02:40:00,
2013-05-25 22:45:00,63.0,50.5,30.17,NW,313,0.0,0.0,55,0.00,,,0.00,dv,2013-05-26 02:45:00,
2013-05-25 22:50:00,62.8,49.9,30.17,NW,313,0.0,0.0,54,0.00,,,0.00,dv,2013-05-26 02:50:00,
2013-05-25 22:55:00,62.5,50.0,30.17,NW,313,0.0,0.0,55,0.00,,,0.00,dv,2013-05-26 02:55:00,
2013-05-25 23:00:00,62.2,49.7,30.17,NW,313,0.0,0.0,55,0.00,,,0.00,dv,2013-05-26 03:00:00,
2013-05-25 23:05:00,61.9,49.8,30.17,NW,313,0.0,0.0,56,0.00,,,0.00,dv,2013-05-26 03:05:00,
2013-05-25 23:10:00,61.6,49.5,30.17,NW,313,0.0,0.0,56,0.00,,,0.00,dv,2013-05-26 03:10:00,
2013-05-25 23:15:00,61.4,49.0,30.17,NW,313,0.0,0.0,55,0.00,,,0.00,dv,2013-05-26 03:15:00,
2013-05-25 23:20:00,61.4,49.0,30.17,NW,313,0.0,0.0,55,0.00,,,0.00,dv,2013-05-26 03:20:00,
2013-05-25 23:25:00,61.3,49.6,30.17,NW,313,0.0,0.0,57,0.00,,,0.00,dv,2013-05-26 03:25:00,
2013-05-25 23:30:00,61.2,49.5,30.17,NW,313,1.6,1.6,57,0.00,,,0.00,dv,2013-05-26 03:30:00,
2013-05-25 23:35:00,61.0,49.0,30.17,NW,313,0.0,0.0,56,0.00,,,0.00,dv,2013-05-26 03:35:00,
2013-05-25 23:40:00,60.9,48.2,30.17,NW,313,0.0,0.0,54,0.00,,,0.00,dv,2013-05-26 03:40:00,
2013-05-25 23:45:00,60.7,48.3,30.16,NW,313,0.0,0.0,55,0.00,,,0.00,dv,2013-05-26 03:45:00,
2013-05-25 23:50:00,60.7,49.4,30.15,NW,313,0.0,0.0,58,0.00,,,0.00,dv,2013-05-26 03:50:00,
2013-05-25 23:55:00,60.5,49.2,30.15,NW,313,0.0,0.0,58,0.00,,,0.00,dv,2013-05-26 03:55:00,